Location: Arrodets-la-Barthe
(43.0306°N, 0.2829°E)
Time: 05:22:31
(UTC+00:00)

Cosmos 2278 - Pass Details

Date: 30 May 2022
Orbit: 838 x 854 km, 71.1° (Epoch: 03 July)

Event Time Altitude Azimuth Distance (km) Brightness Sun altitude
Rises 20:33:25 0° 206° (SSW) 3,380 6.7 -10.1°
Reaches altitude 10° 20:35:51 10° 208° (SSW) 2,452 6.0 -10.4°
Maximum altitude 20:41:29 80° 295° (WNW) 863 3.9 -11.1°
Drops below altitude 10° 20:47:11 10° 23° (NNE) 2,478 6.4 -11.9°
Sets 20:49:39 0° 24° (NNE) 3,420 7.2 -12.2°
